Regional Weather Roundup
Issued by NWS Little Rock, AR

Home | Current Version | Previous Version | Text Only | Print | Product List | Glossary On
Versions: 1 2 3 4 5 6 7 8 9 10 11 12 13 14 15 16 17 18 19 20 21 22 23 24 25 26 27 28 29 30 31 32 33 34 35 36 37 38 39 40 41 42 43 44 45 46 47 48 49 50
000
ASUS44 KLZK 210305
RWRLZK

WEATHER ROUNDUP FOR ARKANSAS
NATIONAL WEATHER SERVICE LITTLE ROCK AR
900 PM CST SAT DEC 20 2014

NOTE: "FAIR" INDICATES FEW OR NO CLOUDS BELOW 12,000 FEET WITH NO
SIGNIFICANT WEATHER AND/OR OBSTRUCTIONS TO VISIBILITY.

ARZ001-003-010-029-210400-
NORTHWEST ARKANSAS

CITY           SKY/WX    TMP DP  RH WIND       PRES   REMARKS
FAYETTEVILLE   CLOUDY    40  37  89 CALM      30.20S
FORT SMITH     CLOUDY    46  39  76 CALM      30.22S
HARRISON       CLOUDY    40  39  97 E5        30.20S
BENTONVILLE    CLOUDY    41  34  75 CALM      30.20S
ROGERS         CLOUDY    41  34  76 S3        30.20S
SILOAM SPGS    CLOUDY    43  34  70 S3        30.20S
HIGHFILL       CLOUDY    42  36  79 CALM      30.19S
SPRINGDALE     CLOUDY    41  36  81 CALM      30.21S
$$

ARZ004-005-016-210400-
NORTH CENTRAL ARKANSAS

CITY           SKY/WX    TMP DP  RH WIND       PRES   REMARKS
BATESVILLE     CLOUDY    43  36  75 CALM      30.26R
FLIPPIN        PTCLDY    41  36  81 CALM      30.22S
MTN HOME       CLOUDY    41  38  89 SE3       30.21S
$$

ARZ040-041-210400-
WEST CENTRAL ARKANSAS

CITY           SKY/WX    TMP DP  RH WIND       PRES   REMARKS
MENA           CLOUDY    46  45  93 CALM      30.20F
MOUNT IDA      CLOUDY    45  43  93 CALM      30.19S
$$

ARZ009-017-025-026-028-210400-
NORTHEAST ARKANSAS

CITY           SKY/WX    TMP DP  RH WIND       PRES   REMARKS
CORNING        CLOUDY    41  36  81 CALM      30.27S HAZE
JONESBORO      MOCLDY    37  34  89 NE5       30.26S
NEWPORT        CLOUDY    39  37  92 CALM      30.28R
WALNUT RIDGE   CLOUDY    41  34  75 E6        30.26R
BLYTHEVILLE    CLEAR     35  32  88 NE6       30.27S WCI  30
$$

ARZ022-023-033-042-044-210400-
CENTRAL ARKANSAS

CITY           SKY/WX    TMP DP  RH WIND       PRES   REMARKS
LITTLE ROCK    PTCLDY    40  35  83 CALM      30.26R
N LITTLE ROCK  PTCLDY    40  38  93 NE5       30.26R
JACKSONVILLE   PTCLDY    39  36  91 NE2       30.25
SEARCY         CLOUDY    40  36  86 N3        30.28R
HOT SPRINGS    CLOUDY    45  39  79 E3        30.23S
RUSSELLVILLE   CLOUDY    44  41  89 CALM      30.23R
CLINTON        CLOUDY    41  37  87 CALM      30.26S FOG
$$

ARZ036-210400-
EAST ARKANSAS

CITY           SKY/WX    TMP DP  RH WIND       PRES   REMARKS
WEST MEMPHIS   CLOUDY    42  37  82 NE6       30.24S
$$

ARZ050-053-066-070-073-210400-
SOUTHWEST ARKANSAS

CITY           SKY/WX    TMP DP  RH WIND       PRES   REMARKS
ARKADELPHIA    FAIR      39  39 100 CALM      30.24S
CAMDEN         CLEAR     39  37  93 MISG      30.24R
TEXARKANA      CLOUDY    41  40  96 CALM      30.21F
EL DORADO      CLEAR     40  38  93 CALM      30.22S
DE QUEEN       CLOUDY    47  44  90 E5        30.20F
$$

ARZ056-057-069-210400-
SOUTHEAST ARKANSAS

CITY           SKY/WX    TMP DP  RH WIND       PRES   REMARKS
PINE BLUFF     CLEAR     41  35  79 CALM      30.25R
STUTTGART        N/A     37  34  87 N7        30.26R
MONTICELLO     CLEAR     41  36  82 CALM      30.23S

$$





USA.gov is the U.S. government's official web portal to all federal, state and local government web resources and services.